Regional Weather Roundup
Issued by NWS

Home | Current Version | Previous Version | Text Only | Print | Product List | Glossary Off
Versions: 1 2 3 4 5 6 7 8 9 10 11 12 13 14 15 16 17 18 19 20 21 22 23 24 25 26 27 28 29 30 31 32 33 34 35 36 37 38 39 40 41 42 43 44 45 46 47 48 49 50

000
ASUS43 KIND 210959
RWRIN

WEATHER ROUNDUP FOR INDIANA
NATIONAL WEATHER SERVICE INDIANAPOLIS IN
500 AM EST SUN JAN 21 2018

NOTE: "FAIR" INDICATES FEW OR NO CLOUDS BELOW 12,000 FEET WITH NO
SIGNIFICANT WEATHER AND/OR OBSTRUCTIONS TO VISIBILITY.

* - STATION DOES NOT REPORT WEATHER SUCH AS PRECIPITATION OR FOG.

+ - STATION NOT QUALITY CONTROLLED BY THE NATIONAL WEATHER SERVICE.
    USE DATA WITH CAUTION...ESPECIALLY DEWPOINT AND RELATIVE
    HUMIDITY OBSERVATIONS.

INZ001>003-010>013-019-020-211100-
NORTHWEST INDIANA

CITY           SKY/WX    TMP DP  RH WIND       PRES   REMARKS
KNOX *+        CLOUDY    34  34 100 CALM      30.02S
MONTICELLO +   FOG       38  37  94 SE3       30.01F VSB 1/4

$$

LMZ046-743>745-211100-
SOUTHERN LAKE MICHIGAN

STATION/POSITION TIME  TEMP    WIND        PRES    WAVE
                       AIR SEA DIR/SP/G            HT
                 (UTC) (F)     (DEG/KT/KT) (MB)    (FT)
BURNS HARBOR     0940   39     160/  5/  8 1016.6F
MICHIGAN CITY    0930   38     140/  6/  7   N/A

$$

INZ004-005-014>016-021>024-211100-
NORTH CENTRAL INDIANA

CITY           SKY/WX    TMP DP  RH WIND       PRES   REMARKS
GOSHEN         FOG       37  36  96 SE3       30.02F VSB 1/4
PERU/GRISSOM   FOG       38  38 100 S5        30.02F VSB 3/8 WCI  35
SOUTH BEND     CLOUDY    36  34  92 CALM      30.02F

$$

INZ006>009-017-018-025>027-211100-
NORTHEAST INDIANA

CITY           SKY/WX    TMP DP  RH WIND       PRES   REMARKS
FORT WAYNE     FOG       38  37  97 CALM      30.04F VSB 1/4
KENDALLVILLE + FOG       36  36 100 CALM      30.04S VSB 1/4

$$

INZ028-029-035-036-043>045-051>053-211100-
WEST CENTRAL INDIANA

CITY           SKY/WX    TMP DP  RH WIND       PRES   REMARKS
LAFAYETTE      CLOUDY    39  39 100 SE3       30.02S FOG
TERRE HAUTE    CLOUDY    39  37  92 SE3       30.04S FOG

$$

INZ030>032-037>040-046>048-054>057-064-065-211100-
CENTRAL INDIANA

CITY           SKY/WX    TMP DP  RH WIND       PRES   REMARKS
INDIANAPOLIS   CLOUDY    40  40 100 E5        30.04F FOG     WCI  37
-EAGLE CREEK   FOG       40  40 100 CALM      30.04S VSB 3/4
MT COMFORT *+  CLOUDY    39  39 100 S5        30.05S WCI  36
SHELBYVILLE    NOT AVBL

$$

INZ033-034-041-042-049-050-058-059-211100-
EAST CENTRAL INDIANA

CITY           SKY/WX    TMP DP  RH WIND       PRES   REMARKS
MUNCIE         FOG       42  40  92 S5        30.04F VSB 1
RICHMOND +     FOG       36  36 100 S9        30.07S VSB 1/2 WCI  29

$$

INZ060-061-067>069-081>083-085>088-211100-
SOUTHWEST INDIANA

CITY           SKY/WX    TMP DP  RH WIND       PRES   REMARKS
EVANSVILLE     CLOUDY    44  41  89 CALM      30.06S
HUNTINGBURG +  CLOUDY    46  40  79 S6        30.08R

$$

INZ062-063-066-070>080-084-089>092-211100-
SOUTH CENTRAL AND SOUTHEAST INDIANA

CITY           SKY/WX    TMP DP  RH WIND       PRES   REMARKS
BLOOMINGTON    CLOUDY    49  41  74 SW9       30.04F
SEYMOUR +      MOCLDY    39  39 100 CALM      30.07F

$$




USA.gov is the U.S. government's official web portal to all federal, state and local government web resources and services.